Other Public Products
Issued by NWS Grand Forks, ND

Home | Current Version | Previous Version | Text Only | Print | Product List | Glossary Off
Versions: 1 2 3 4 5 6 7 8 9 10 11 12 13 14 15 16 17 18 19 20 21 22 23 24 25 26 27 28 29 30 31 32 33 34 35 36 37 38 39 40 41 42 43 44 45 46 47 48 49 50

000
FPUS83 KFGF 041631
OPUFGF
PRAIRIE TO PINES WEATHER ROUNDUP
NATIONAL WEATHER SERVICE EASTERN NORTH DAKOTA/GRAND FORKS ND
1100 AM CDT TUE AUG 04 2015

 **SATELLITE DATA USED TO AUGMENT SKY COVER AT AUTOMATED STATIONS**
 *****  WEATHER ACROSS EASTERN NORTH DAKOTA  *****

CITY           SKY/WX    TMP DP  RH WIND       PRES   REMARKS
GRAND FORKS    MOSUNNY   69  54  58 NE5       30.03S
GRAND FORKS AF SUNNY     68  54  61 VRB2      30.04S
GRAND CITY NWS   N/A     68 N/A N/A VRB5        N/A
BUXTON         NOT AVBL
DEVILS LAKE    SUNNY     70  52  52 SE8       30.03S
FARGO          SUNNY     73  51  46 N7        30.02S
WAHPETON ARPT  SUNNY     73  45  35 NW6       30.01F
$$

 *****  WEATHER ACROSS CENTRAL AND WESTERN NORTH DAKOTA  *****

CITY           SKY/WX    TMP DP  RH WIND       PRES   REMARKS
JAMESTOWN      SUNNY     72  52  49 E6        30.02S
BISMARCK       MOSUNNY   77  56  48 SE8       30.00S
MINOT          SUNNY     73  52  47 VRB7      30.00F
MINOT AFB      SUNNY     76  51  41 SE7       29.99F
GARRISON         N/A     72  57  59 SE9       30.01R
WILLISTON      SUNNY     78  49  35 SE13G23   29.97S
DICKINSON      SUNNY     75  56  51 SE14      29.98S
HETTINGER      SUNNY     74  58  57 SE10      30.00S
$$

 *****  OTHER OBSERVATIONS NORTHEAST NORTH DAKOTA  *****

CITY           SKY/WX    TMP DP  RH WIND       PRES   REMARKS
WALHALLA       FAIR      66  55  68 MISG      30.05S
LANGDON        FAIR      70  52  52 NE6       30.06S
CAVALIER       FAIR      66  54  63 N7        30.05S
GRAFTON        FAIR      68  55  64 VRB5      30.05R
CANDO          FAIR      70  54  56 SE7       30.05S
FORT TOTTEN      N/A     72  53  51 SE6       29.95S
ROLLA            N/A     66  55  68 E8        30.06S
RUGBY          NOT AVBL
 ***** THE ABOVE OBSERVATIONS ARE NON NWS ARE NOT QUALITY
        CONTROLLED AND MAY MIS-REPORT RAIN FOR SNOW...
$$

 *****  OTHER OBSERVATIONS SOUTHEAST NORTH DAKOTA *****

CITY           SKY/WX    TMP DP  RH WIND       PRES   REMARKS
COOPERSTOWN    NOT AVBL
VALLEY CITY    FAIR      73  52  46 E3        30.02F
OAKES            N/A     75  55  50 S3        30.01S
GWINNER        FAIR      75  54  46 CALM      30.02S
SHEYENNE NWR     N/A     76  51  41 NW2       29.95
BUFFALO        NOT AVBL
WYNDMERE         N/A     73  55  53 N5          N/A
 ***** THE ABOVE OBSERVATIONS ARE NON NWS ARE NOT QUALITY
       CONTROLLED AND MAY MIS-REPORT RAIN FOR SNOW...
$$

  *****  WEATHER ACROSS NORTHERN MINNESOTA  *****

CITY           SKY/WX    TMP DP  RH WIND       PRES   REMARKS
FLAG ISLAND    CLOUDY    59  48  67 NE7       30.03R
WARROAD        PTSUNNY   63  54  72 NE5       30.04S
ROSEAU         MOSUNNY   64  55  72 N5        30.03F
HALLOCK        SUNNY     66  52  59 N8        30.03S
THF RVR FALLS  MOSUNNY   68  54  60 N7        30.03S
HALSTAD        NOT AVBL
FOSSTON        SUNNY     70  52  52 CALM      30.04R
BAUDETTE       PTSUNNY   63  50  62 N8        30.02R
WASKISH        MOSUNNY   68  54  60 NW9       30.01S
CROOKSTON      SUNNY     70  54  56 N6        30.04S
$$
  *****  WEATHER ACROSS CENTRAL AND WEST MINNESOTA  *****

CITY           SKY/WX    TMP DP  RH WIND       PRES   REMARKS
BEMIDJI        PTSUNNY   68  53  57 NW10      30.02R
PARK RAPIDS    SUNNY     70  50  49 N9        30.02S
WADENA         SUNNY     73  52  46 NW8       30.01F
DETROIT LAKES  SUNNY     72  50  46 N6        30.04S
MOORHEAD       SUNNY     72  50  46 N8        30.03S
FERGUS FALLS   SUNNY     73  54  49 NW6       30.01F
ELBOW LAKE     FAIR      73  52  47 W6        30.02F
MORRIS MN      SUNNY     77  55  47 NW3       30.00F
STAPLES        SUNNY     73  50  43 NW8       30.01F
WHEATON        SUNNY     73  55  53 CALM      30.02F
$$
  *****  WEATHER ELSEWHERE ACROSS MINNESOTA  *****

CITY           SKY/WX    TMP DP  RH WIND       PRES   REMARKS
DULUTH         CLOUDY    67  52  58 NW7       29.98S
INTRNTL FALLS  CLOUDY    59  50  72 N8        30.02R
ELY            CLOUDY    59  48  67 NW8       30.00R
CLOQUET        MOSUNNY   70  50  49 NW12      30.00R
BRAINERD       SUNNY     71  50  47 NW7       30.02S
HIBBING        PTSUNNY   66  53  63 NW9       29.99S
ALEXANDRIA     SUNNY     74  53  48 W12G21    30.04F
SAINT CLOUD    SUNNY     75  52  44 NW12      30.01S
MINNEAPOLIS    MOSUNNY   75  52  44 NW10      30.01S
$$

  *****  WEATHER ACROSS SOUTH DAKOTA  *****

CITY           SKY/WX    TMP DP  RH WIND       PRES   REMARKS
SIOUX FALLS    CLOUDY    73  61  65 SE9       30.00F
BROOKINGS      CLOUDY    72  55  56 SE12      30.03S
WATERTOWN      PTSUNNY   73  55  53 S9        30.01F
HURON          PTSUNNY   74  65  73 E7        29.95F
SISSETON         N/A     79  48  33 VRB3      29.99F
ABERDEEN       MOSUNNY   75  58  55 SE7       29.98F
MITCHELL       CLOUDY    73  65  75 E12       29.95F
PIERRE         PTSUNNY   74  62  66 E9        29.95S
MOBRIDGE       MOSUNNY   79  63  57 SE7       29.95F
RAPID CITY     CLOUDY    71  63  75 S10       29.97F
$$

  *****  SOME WEATHER IN NEARBY STATES *****

CITY           SKY/WX    TMP DP  RH WIND       PRES   REMARKS
GLASGOW MT     SUNNY     75  51  43 SE16      29.88F
GREAT FALLS MT CLOUDY    80  43  26 SW7       29.92S
CHEYENNE WY    LGT RAIN  64  50  60 W14       30.14S
SCOTTSBLUFF NE PTSUNNY   70  56  61 SE10      30.01R
OMAHA NE       LGT RAIN  68  66  93 SE14      30.03F
DES MOINES IA  CLOUDY    73  58  59 CALM      30.04S
DAVENPORT IA   PTSUNNY   77  59  53 NW6       30.02S
CHICAGO IL     PTSUNNY   78  50  37 W15G21    29.97S
EAU CLAIRE WI  SUNNY     73  54  51 NW9       30.00S
LA CROSSE WI   SUNNY     75  53  46 CALM      30.01R
$$

  *****  SOME NATIONAL WEATHER *****

CITY           SKY/WX    TMP DP  RH WIND       PRES   REMARKS
LA GUARDIA NY  MOSUNNY   85  63  47 SW13G23   29.85S
RALEIGH NC     MOSUNNY   89  72  56 S5        30.00F HX  96
ATLANTA GA     MOSUNNY   90  67  46 W5        30.04R HX  93
NEW ORLEANS LA PTSUNNY   84  74  71 S13       30.00S HX  91
OKLAHOMA CITY  PTSUNNY   74  71  91 S15       29.98S
ALBUQUERQUE NM MOSUNNY   79  46  31 SE3       30.22F
SALT LAKE CITY MOSUNNY   71  54  54 CALM      30.12S
LOS ANGELES CA MOSUNNY   73  63  70 SE3       29.92S
BOISE ID       SUNNY     75  51  43 CALM      30.02R
SEATTLE WA     CLOUDY    61  54  77 SW7       30.03R
$$

*** WEATHER ACROSS MANITOBA...SASKATCHEWAN AND ONTARIO ***
                ***ONTARIO***

CITY           SKY/WX    TMP DP  RH WIND       PRES   REMARKS
GERALDTON      DRIZZLE   55  52  88 NW14G20   29.88
THUNDER BAY    CLOUDY    59  50  72 N5        29.95R
SIOUX LOOKOUT  CLOUDY    55  50  82 N6        30.01R
TORONTO        PTSUNNY   75  55  50 W14       29.88S
BIG TROUT LK   CLOUDY    57  50  77 NW10      29.96S
PICKLE LAKE    PTSUNNY   57  48  72 N6        29.98R
DRYDEN         CLOUDY    55  48  76 N6        30.02R
KENORA         PTSUNNY   57  48  72 N6        30.04R
$$
                *** MANITOBA***

CITY           SKY/WX    TMP DP  RH WIND       PRES   REMARKS
BRANDON        MOSUNNY   66  54  63 E8        30.05F
DAUPHIN        SUNNY     68  55  64 E8        30.05R
ISLAND LAKE    CLOUDY    55  54  94 W6        30.02S
PILOT MOUND      N/A     66  52  59 E6          N/A
THE PAS        MOSUNNY   66  52  59 N7        30.04
THOMPSON       CLOUDY    57  50  77 NE5       30.04
WINNIPEG       PTSUNNY   63  52  67 N6        30.06R
LYNN LAKE      PTSUNNY   59  52  77 VRB2      30.07R
CHURCHILL      CLOUDY    48  45  87 NE12      30.06R
GILLAM         CLOUDY    54  48  82 N3        30.01S
$$
                ***SASKATCHEWAN***

CITY           SKY/WX    TMP DP  RH WIND       PRES   REMARKS
ESTEVAN        PTSUNNY   73  52  46 E12G17    29.99F
KINDERSLEY     CLOUDY    70  54  56 SE17      29.80F
LLOYDMINSTER   CLOUDY    61  57  88 E10       29.87F
PRINCE ALBERT  CLOUDY    64  57  77 E6        29.98F
REGINA         PTSUNNY   73  54  49 SE16G23   29.96F



USA.gov is the U.S. government's official web portal to all federal, state and local government web resources and services.